Salina, KS

7:51 PM CDT on July 25, 2017 (GMT -0500)
Salina Municipal

Weather History for KSLN - March, 2015

Change the Weather History Date:

Wednesday, March 18, 2015

  Actual Average Record
Temperature  
Mean Temperature 44 °F 46 °F  
Max Temperature 47 °F 58 °F 90 °F (1921)
Min Temperature 40 °F 35 °F -1 °F (1923)
Degree Days  
Heating Degree Days 21 19  
Month to date heating degree days 334 390  
Since 1 July heating degree days 4163 4231  
Cooling Degree Days 0 0  
Month to date cooling degree days 1 0  
Year to date cooling degree days 1 0  
Moisture  
Dew Point 28 °F    
Average Humidity 59    
Maximum Humidity 92    
Minimum Humidity 25    
Precipitation  
Precipitation T in 0.08 in 1.20 in (1984)
Month to date precipitation T 1.25  
Year to date precipitation 1.44 3.05  
Sea Level Pressure  
Sea Level Pressure 30.13 in    
Wind  
Wind Speed 9 mph (East)    
Max Wind Speed 13 mph    
Max Gust Speed 16 mph    
Visibility 9 miles    
Events      
T = Trace of Precipitation, MM = Missing Value Source: NWS Daily Summary

Daily Weather History Graph

Daily Weather History Graph

Search for Another Location

Airport or City:

Trip Planner

Search our weather history database for the weather conditions in past years. The results will help you decide how hot, cold, wet, or windy it might be!

Date:

Astronomy

Mar. 18, 2015 Rise Set
Actual Time 7:37 AM CDT 7:40 PM CDT
Civil Twilight 7:11 AM CDT 8:06 PM CDT
Nautical Twilight 6:40 AM CDT 8:37 PM CDT
Astronomical Twilight 6:08 AM CDT 9:09 PM CDT
Moon 6:20 AM CDT (3/18) 5:58 PM CDT (3/18)
Length of Visible Light 12h 55m
Length of Day
12h 02m
Waning Crescent, 4% of the Moon is Illuminated
Mar 18
Waning Crescent
Mar 20
New
Mar 27
First Quarter
Apr 4
Full
Apr 11
Last Quarter

Hourly Weather History & Observations

Time (CDT) Temp. Windchill Dew Point Humidity Pressure Visibility Wind Dir Wind Speed Gust Speed Precip Events Conditions
12:53 AM 46.9 °F - 12.0 °F 24% 30.25 in 10.0 mi NE 10.4 mph - N/A   Clear
1:53 AM 46.0 °F 42.5 °F 12.9 °F 26% 30.26 in 10.0 mi ENE 6.9 mph - N/A   Clear
2:53 AM 45.0 °F 41.8 °F 14.0 °F 29% 30.25 in 10.0 mi NE 5.8 mph - N/A   Clear
3:53 AM 45.0 °F 40.1 °F 14.0 °F 29% 30.22 in 10.0 mi ENE 9.2 mph - N/A   Overcast
4:53 AM 44.1 °F 40.1 °F 15.1 °F 31% 30.20 in 10.0 mi NE 6.9 mph - N/A   Overcast
5:53 AM 44.1 °F 39.0 °F 16.0 °F 32% 30.18 in 10.0 mi NE 9.2 mph - N/A   Overcast
6:53 AM 42.8 °F 37.5 °F 17.6 °F 36% 30.16 in 10.0 mi East 9.2 mph - N/A   Overcast
7:53 AM 43.0 °F 36.8 °F 18.0 °F 37% 30.18 in 10.0 mi East 11.5 mph - N/A   Overcast
8:53 AM 43.0 °F 36.8 °F 19.0 °F 38% 30.18 in 10.0 mi East 11.5 mph - N/A   Overcast
9:53 AM 43.0 °F 37.7 °F 19.9 °F 40% 30.17 in 10.0 mi East 9.2 mph - N/A   Overcast
10:53 AM 42.1 °F 37.7 °F 27.0 °F 55% 30.19 in 10.0 mi East 6.9 mph - N/A   Overcast
11:53 AM 42.1 °F 37.7 °F 30.9 °F 65% 30.17 in 10.0 mi East 6.9 mph - 0.00 in   Overcast
12:53 PM 43.0 °F 36.4 °F 32.0 °F 65% 30.14 in 10.0 mi East 12.7 mph - N/A   Overcast
1:53 PM 42.1 °F 36.6 °F 35.1 °F 76% 30.13 in 10.0 mi ESE 9.2 mph - N/A   Overcast
2:53 PM 42.1 °F 36.6 °F 35.1 °F 76% 30.10 in 10.0 mi ESE 9.2 mph - N/A   Overcast
3:02 PM 42.1 °F 36.6 °F 36.0 °F 79% 30.08 in 10.0 mi East 9.2 mph - N/A   Overcast
3:53 PM 43.0 °F 37.7 °F 36.0 °F 76% 30.08 in 10.0 mi East 9.2 mph - N/A   Overcast
4:53 PM 43.0 °F 37.7 °F 37.0 °F 80% 30.06 in 10.0 mi ENE 9.2 mph - N/A   Overcast
5:53 PM 43.0 °F 37.7 °F 37.0 °F 80% 30.05 in 10.0 mi East 9.2 mph - N/A   Overcast
6:53 PM 43.0 °F 37.7 °F 37.0 °F 80% 30.05 in 10.0 mi ESE 9.2 mph - N/A   Overcast
6:56 PM 43.0 °F 37.7 °F 37.0 °F 80% 30.03 in 10.0 mi ESE 9.2 mph - N/A   Overcast
7:06 PM 43.0 °F 37.7 °F 37.0 °F 80% 30.04 in 10.0 mi East 9.2 mph - N/A   Overcast
7:53 PM 42.1 °F 37.1 °F 37.0 °F 82% 30.05 in 10.0 mi East 8.1 mph - N/A   Overcast
8:53 PM 42.1 °F 37.1 °F 37.0 °F 82% 30.06 in 10.0 mi East 8.1 mph - N/A   Overcast
9:53 PM 41.0 °F 36.4 °F 37.0 °F 86% 30.09 in 6.0 mi East 6.9 mph - N/A   Overcast
10:53 PM 41.0 °F 37.1 °F 37.9 °F 89% 30.09 in 3.0 mi East 5.8 mph - N/A   Overcast
11:53 PM 39.9 °F 35.8 °F 37.9 °F 93% 30.09 in 4.0 mi ENE 5.8 mph - N/A   Overcast